Tracking 20232 objects as of 19-Jan-2020
HD Live streaming from Space Station
objects crossing your sky now

COSMOS 734

Track COSMOS 734 now!
10-day predictions
COSMOS 734 is classified as:


NORAD ID: 7823
Int'l Code: 1975-045C
Perigee: 1,450.5 km
Apogee: 1,478.1 km
Inclination: 74.0 °
Period: 115.0 minutes
Semi major axis: 7835 km
RCS: 0.7092 m2 (medium)
Launch date: May 28, 1975
Source: Commonwealth of Independent States (former USSR) (CIS)
Launch site: PLESETSK MISSILE AND SPACE COMPLEX (PKMTR)
aabbcc
Your satellite tracking list
Your tracking list is empty




NASA's NSSDC Master Catalog

Two Line Element Set (TLE):
1  7823U 75045C   20018.59804779 -.00000024 +00000-0 -53168-4 0  9996
2  7823 074.0183 107.6120 0017616 027.8005 076.2250 12.51756795040076
Source of the keplerian elements: AFSPC